Regional Weather Roundup
Issued by NWS

Home | Current Version | Previous Version | Text Only | Print | Product List | Glossary Off
Versions: 1 2 3 4 5 6 7 8 9 10 11 12 13 14 15 16 17 18 19 20 21 22 23 24 25 26 27 28 29 30 31 32 33 34 35 36 37 38 39 40 41 42 43 44 45 46 47 48 49 50

000
ASUS43 KIND 230359
RWRIN

WEATHER ROUNDUP FOR INDIANA
NATIONAL WEATHER SERVICE INDIANAPOLIS IN
1200 AM EDT THU MAR 23 2017

NOTE: "FAIR" INDICATES FEW OR NO CLOUDS BELOW 12,000 FEET WITH NO
SIGNIFICANT WEATHER AND/OR OBSTRUCTIONS TO VISIBILITY.

* - STATION DOES NOT REPORT WEATHER SUCH AS PRECIPITATION OR FOG.

+ - STATION NOT QUALITY CONTROLLED BY THE NATIONAL WEATHER SERVICE.
    USE DATA WITH CAUTION...ESPECIALLY DEWPOINT AND RELATIVE
    HUMIDITY OBSERVATIONS.

INZ001>003-010>013-019-020-230500-
NORTHWEST INDIANA

CITY           SKY/WX    TMP DP  RH WIND       PRES   REMARKS
KNOX *+        CLEAR     28   0  29 SE5       30.48F WCI  23
MONTICELLO +   CLEAR     31  19  61 E3        30.48S

$$

LMZ046-743>745-230500-
SOUTHERN LAKE MICHIGAN

STATION/POSITION TIME  TEMP    WIND        PRES    WAVE
                       AIR SEA DIR/SP/G            HT
                 (UTC) (F)     (DEG/KT/KT) (MB)    (FT)
BURNS HARBOR     0340   31      90/  7/  9 1032.2F
MICHIGAN CITY    0330   29      80/  8/  8   N/A

$$

INZ004-005-014>016-021>024-230500-
NORTH CENTRAL INDIANA

CITY           SKY/WX    TMP DP  RH WIND       PRES   REMARKS
GOSHEN         CLEAR     29  15  56 S5        30.50S WCI  24
PERU/GRISSOM   PTCLDY    31  19  61 E8        30.46F WCI  23
SOUTH BEND     CLEAR     29  15  56 SE8       30.49F WCI  21

$$

INZ006>009-017-018-025>027-230500-
NORTHEAST INDIANA

CITY           SKY/WX    TMP DP  RH WIND       PRES   REMARKS
ANGOLA *+      CLEAR     27  16  63 S5        30.49S WCI  21
FORT WAYNE     CLOUDY    28  18  66 SE7       30.51S WCI  21
KENDALLVILLE + CLOUDY    28  17  62 SE8       30.50R WCI  20

$$

INZ028-029-035-036-043>045-051>053-230500-
WEST CENTRAL INDIANA

CITY           SKY/WX    TMP DP  RH WIND       PRES   REMARKS
CRAWFORDSVL +  CLOUDY    30  21  69 E9        30.46F WCI  22
GREENCASTLE +  CLEAR     32  21  64 E7        30.45F WCI  26
LAFAYETTE      CLEAR     29  21  72 E10       30.47F WCI  20
TERRE HAUTE    PTCLDY    32  22  66 E5        30.44F WCI  27

$$

INZ030>032-037>040-046>048-054>057-064-065-230500-
CENTRAL INDIANA

CITY           SKY/WX    TMP DP  RH WIND       PRES   REMARKS
INDIANAPOLIS   CLOUDY    33  20  58 E10       30.46F WCI  25
-EAGLE CREEK   CLOUDY    32  19  58 E6        30.46F WCI  26
KOKOMO +       CLEAR     30  23  75 E9        30.49F WCI  22
SHELBYVILLE    CLEAR     30  21  69 E7        30.47S WCI  23

$$

INZ033-034-041-042-049-050-058-059-230500-
EAST CENTRAL INDIANA

CITY           SKY/WX    TMP DP  RH WIND       PRES   REMARKS
MUNCIE         CLEAR     31  21  66 E10       30.48F WCI  22
RICHMOND +     CLEAR     28  21  74 E8        30.49R WCI  20

$$

INZ060-061-067>069-081>083-085>088-230500-
SOUTHWEST INDIANA

CITY           SKY/WX    TMP DP  RH WIND       PRES   REMARKS
EVANSVILLE     CLOUDY    40  20  44 NE9       30.41F
HUNTINGBURG *+ CLEAR     37  20  50 E9        30.42F

$$

INZ062-063-066-070>080-084-089>092-230500-
SOUTH CENTRAL AND SOUTHEAST INDIANA

CITY           SKY/WX    TMP DP  RH WIND       PRES   REMARKS
BLOOMINGTON    CLEAR     34  18  52 E9        30.44F WCI  27
MADISON *+     PTCLDY    34  19  55 E7        30.47F WCI  28
SEYMOUR +      PTCLDY    32  21  64 NE6       30.46S WCI  26

$$





USA.gov is the U.S. government's official web portal to all federal, state and local government web resources and services.